Tracking 19181 objects as of 17-Jun-2018
HD Live streaming from Space Station
objects crossing your sky now

FENGYUN 1C DEB

Track FENGYUN 1C DEB now!
10-day predictions


NORAD ID: 31316
Int'l Code: 1999-025BPU
Perigee: 783.2 km
Apogee: 959.2 km
Inclination: 99.0 °
Period: 102.2 minutes
Semi major axis: 7242 km
RCS: 0.0146 m2 (small)
Launch date: May 10, 1999
Source: People's Republic of China (PRC)
Launch site: Taiyaun Space Center, China (TSC)

Note: This is SATELLITE DEBRIS
aabbcc
Your satellite tracking list
Your tracking list is empty




NASA's NSSDC Master Catalog

Two Line Element Set (TLE):
1 31316U 99025BPU 18167.32248531  .00000366  00000-0  22304-3 0  9999
2 31316  99.0272 214.5721 0121502  64.9501 296.4225 14.08625497576209
Source of the keplerian elements: AFSPC